Flag for Australia Weather past 2 weeks in Darwin, Northern Territory, Australia

Now
90 °F

Sunny.


Feels Like: 89 °F
Forecast: 75 / 90 °F
Wind: 8 mph from West

Location: Darwin Airport

Current Time: Aug 29, 2015 at 12:44:36 PM

Latest Report: Aug 29, 2015 at 12:00 PM


Visibility: 10 mi

Pressure: 29.98 "Hg

Humidity: 36%

Dew point: 59 °F

Location of DarwinLocation

Historic Weather in Darwin — Graph

°F

Darwin temperature yesterday

Maximum temperature yesterday: 91 °F (at 12:30 PM)
Minimum temperature yesterday: 72 °F (at 5:30 AM)
Average temperature yesterday: 81 °F

Past Weeks' High & Low Weather Summary

 TemperatureHumidityPressure
High91 °F (Aug 14, 2:30 PM)100% (Aug 22, 5:00 AM)30.09 "Hg (Aug 22, 5:00 AM)
Low61 °F (Aug 17, 4:00 AM)6% (Aug 15, 3:30 PM)29.86 "Hg (Aug 20, 4:00 PM)
Average77 °F64%29.97 "Hg
* Reported Aug 14 10:30 AM — Aug 29 11:00 AM, Darwin, Weather by CustomWeather, © 2015

Note: Actual official high and low records may vary slightly from our data, if they occured in-between our weather recording intervals... More about our weather records

Advertising

Darwin weather history for previous 24 hours

 ConditionsComfort  
Time TempWeatherWind HumidityBarometerVisibility
11:00 AM
Sat, Aug 29
88 °FPassing clouds.9 mph40%30.01 "HgN/A
10:30 AM86 °FPassing clouds.7 mph46%30.04 "HgN/A
10:00 AM84 °FPassing clouds.7 mph51%30.04 "HgN/A
9:30 AM82 °FPassing clouds.3 mph62%30.04 "HgN/A
9:00 AM81 °FPassing clouds.6 mph74%30.04 "HgN/A
8:30 AM77 °FPassing clouds.6 mph83%30.01 "HgN/A
7:30 AM73 °FPassing clouds.5 mph83%30.01 "HgN/A
7:00 AM72 °FPassing clouds.3 mph83%29.98 "HgN/A
6:30 AM72 °FMild.5 mph88%29.98 "HgN/A
6:00 AM72 °FClear.6 mph88%29.95 "Hg10 mi
5:30 AM72 °FClear.7 mph88%29.95 "Hg10 mi
5:00 AM73 °FClear.8 mph78%29.95 "Hg10 mi
4:30 AM73 °FClear.8 mph78%29.95 "Hg10 mi
4:00 AM73 °FClear.6 mph83%29.95 "Hg10 mi
3:30 AM73 °FClear.7 mph83%29.95 "Hg10 mi
3:00 AM75 °FClear.7 mph83%29.95 "Hg10 mi
2:30 AM75 °FClear.7 mph78%29.95 "Hg10 mi
2:00 AM75 °FClear.7 mph78%29.98 "Hg10 mi
1:30 AM75 °FClear.6 mph78%29.98 "Hg10 mi
1:00 AM75 °FClear.7 mph78%29.98 "Hg10 mi
12:30 AM77 °FClear.6 mph74%29.98 "Hg10 mi
12:00 AM73 °FClear.No wind74%29.98 "Hg10 mi
11:30 PM
Fri, Aug 28
75 °FClear.No wind74%29.98 "Hg10 mi
11:00 PM77 °FClear.1 mph65%29.98 "Hg10 mi
10:30 PM75 °FClear.5 mph69%29.98 "Hg10 mi
10:00 PM75 °FClear.5 mph69%29.98 "Hg10 mi
9:30 PM77 °FClear.5 mph65%29.95 "Hg10 mi
9:00 PM79 °FClear.3 mph61%29.95 "Hg10 mi
8:30 PM81 °FClear.3 mph62%29.95 "Hg10 mi
8:00 PM81 °FClear.6 mph62%29.95 "Hg10 mi
7:30 PM82 °FClear.6 mph55%29.92 "Hg10 mi
7:00 PM82 °FSunny.8 mph51%29.89 "Hg10 mi
6:30 PM84 °FSunny.12 mph45%29.89 "Hg10 mi
6:00 PM86 °FSunny.13 mph43%29.89 "Hg10 mi
5:30 PM86 °FSunny.14 mph40%29.86 "Hg10 mi
5:00 PM88 °FSunny.16 mph38%29.86 "Hg10 mi
4:30 PM88 °FSunny.15 mph40%29.86 "Hg10 mi
4:00 PM88 °FSunny.18 mph38%29.86 "Hg10 mi
3:30 PM90 °FSunny.16 mph36%29.89 "Hg10 mi
3:00 PM90 °FSunny.16 mph38%29.89 "Hg10 mi
2:30 PM90 °FSunny.15 mph38%29.89 "Hg10 mi
2:00 PM86 °FSunny.17 mph52%29.92 "Hg10 mi
1:30 PM86 °FSunny.17 mph55%29.92 "Hg10 mi
12:30 PM91 °FSunny.9 mph34%29.95 "Hg10 mi
12:00 PM90 °FSunny.14 mph38%29.98 "Hg10 mi
Weather by CustomWeather, © 2015

See weather overviewHow to use our weather pages